Regional Weather Roundup
Issued by NWS Charleston, SC

Current Version | Previous Version | Graphics & Text | Print | Product List | Glossary On
Versions: 1 2 3 4 5 6 7 8 9 10 11 12 13 14 15 16 17 18 19 20 21 22 23 24 25 26 27 28 29 30 31 32 33 34 35 36 37 38 39 40 41 42 43 44 45 46 47 48 49 50
000
ASUS42 KCHS 200910
RWRCHS
REGIONAL WEATHER ROUNDUP
NATIONAL WEATHER SERVICE CHARLESTON SC
400 AM EST SAT DEC 20 2014

NOTE: "FAIR" INDICATES FEW OR NO CLOUDS BELOW 12,000 FEET WITH NO
SIGNIFICANT WEATHER AND/OR OBSTRUCTIONS TO VISIBILITY.

NOT ALL STATIONS ARE QUALITY CONTROLLED BY THE NATIONAL
WEATHER SERVICE. USE DATA WITH CAUTION...ESPECIALLY
DEWPOINT OBSERVATIONS.

SCZ027-030-031-034>040-042>050-201000-
...SOUTHEAST SOUTH CAROLINA...

CITY           SKY/WX    TMP DP  RH WIND       PRES   REMARKS
N CHARLESTON   LGT RAIN  50  45  83 NE7       30.14F
WATERFRONT PRK   N/A     52 N/A N/A N8          N/A
MOUNT PLEASANT LGT RAIN  52  46  82 CALM      30.16S
PINOPOLIS        N/A     52  45  76 E7        30.09S
MONCKS CORNER  LGT RAIN  50  45  81 E3        30.16S
SUMMERVILLE    NOT AVBL
BEAUFORT MCAS  CLOUDY    50  46  86 NE3       30.13F
BEAUFORT ARPT  DRIZZLE   52  48  87 NE5       30.12S
HILTON HEAD IS CLOUDY    52  52 100 N6        30.14S
WALTERBORO     CLOUDY    50  50 100 CALM      30.16S
ALLENDALE      LGT RAIN  48  46  93 CALM      30.15R

...SOUTHERN MIDLANDS AND PEE DEE...

CITY           SKY/WX    TMP DP  RH WIND       PRES   REMARKS
GEORGETOWN     NOT AVBL
KINGSTREE      NOT AVBL
ORANGEBURG     LGT RAIN  49  41  74 E3        30.15F
BARNWELL       DRIZZLE   48  46  93 CALM      30.17R
AIKEN          LGT RAIN  45  45 100 NE6       30.17F
MANNING        NOT AVBL
COLUMBIA       LGT RAIN  47  41  80 N5        30.17S
SUMTER         LGT RAIN  45  39  78 NE3       30.16S
FLORENCE       LGT RAIN  44  37  76 E6        30.18F
MYRTLE BEACH   CLOUDY    48  41  76 N8        30.19S
N MYRTLE BEACH LGT RAIN  46  40  79 NE6       30.19R

$$

GAZ063-065-086>088-099>101-113>116-118-119-134>141-150-201000-
...SOUTHEAST GEORGIA...

CITY           SKY/WX    TMP DP  RH WIND       PRES   REMARKS
SAVANNAH ARPT  CLOUDY    52  49  89 CALM      30.14R
HUNTER AAF     CLOUDY    53  52  99 CALM      30.12R
FORT STEWART   LGT RAIN  50  49  94 CALM      30.12S
STATESBORO     RAIN      49  49 100 CALM      30.14S
SYLVANIA       LGT RAIN  50  50 100 CALM      30.15S
CLAXTON        CLOUDY    46  46 100 CALM      30.14F FOG

...CSRA...CENTRAL AND FAR SOUTHEAST GEORGIA...

CITY           SKY/WX    TMP DP  RH WIND       PRES   REMARKS
THOMSON        CLOUDY    47  47 100 CALM      30.19S
AUGUSTA-BUSH   LGT RAIN  47  46  97 S3        30.16R
AUGUSTA-DANIEL LGT RAIN  50  47  89 SE5       30.15R
SWAINSBORO     RAIN      50  50 100 NE3       30.13F
VIDALIA        CLOUDY    50  48  93 CALM      30.14S
EASTMAN        DRIZZLE   48  48 100 CALM      30.15F
HAZLEHURST     LGT RAIN  51  51 100 NE3       30.11F
ALMA           CLOUDY    50  48  93 CALM      30.12F FOG
WAYCROSS       DRIZZLE   54  52  94 N5        30.13R
JESUP          RAIN      54  52  94 CALM      30.13S
BAXLEY         LGT RAIN  50  50 100 CALM      30.13S
BRUNSWICK      CLOUDY    54  50  87 CALM      30.11F
SAINT SIMONS   CLOUDY    55  52  89 N6        30.10F

$$

SCZ027-028-034-036>038-045-046-048>050-GAZ119-141-201000-
...LAKE AND SUPPLEMENTAL COASTAL OBSERVATIONS...

STATION/POSITION TIME  TEMP    WIND        PRES    WAVE   SWELL
                       AIR SEA DIR/SP/G            HT/PER HT/PER/DIR
                 (UTC) (F)     (DEG/KT/KT) (MB)    (FT/S) (FT/S/D)
UPR LAKE MARION  NOT AVBL
WINYAH BAY       0800   53      50/  8     1021.0S
LAKE MURRAY      0800   49     110/  2/  6 1021.3R
ACE BASIN NERRS  0800   50      20/  1     1021.0S
FORT PULASKI     0900   54 56   20/  2/  3 1020.6R
SAPELO ISLAND    0800   53      40/  3     1020.0S

$$

ANZ835-935-AMZ111-154-330-350-352-354-370-450-454-472-201000-
...C-MAN AND BUOY OBSERVATIONS...

STATION/POSITION TIME  TEMP    WIND        PRES    WAVE   SWELL
                       AIR SEA DIR/SP/G            HT/PER HT/PER/DIR
                 (UTC) (F)     (DEG/KT/KT) (MB)    (FT/S) (FT/S/D)
BUOY 41004       0900   65 69   50/ 14/ 16 1019.5S   2/11   2/11
BUOY 41008       0900   58 57   50/  8/  8 1019.4F   1/10   2/110/10
FOLLY BEACH CMAN 0800   54      20/  9/ 11 1021.4R
CAPERS NEARSHORE 0800   56      60/ 16/ 17   N/A
FRIPP NEARSHORE  NOT AVBL


STATION/POSITION TIME  TEMP    WIND        PRES    WAVE   SWELL
                       AIR SEA DIR/SP/G            HT/PER HT/PER/DIR
                 (UTC) (F)     (DEG/KT/KT) (MB)    (FT/S) (FT/S/D)
5E ST. MARYS GA  0900      60                N/A     1/10
FRYING PAN BUOY  0900   58 66   60/ 12/ 14 1022.3F   2/11   2/100/11
BUOY 41025       0900   46                 1023.5R   3/ 6
CAPE LOOKOUT NC  0800   45      10/  9/ 11 1023.3R
BUOY 41002       0839   65 72   40/  8/ 12 1020.6F   2/10   2/110/10
BUOY 41010       0900   71 76  160/  6/  8 1018.4F   2/11   2/ 80/11
ST AUGUSTINE FL  0900   63     360/ 13/ 14 1019.0F


$$


USA.gov is the U.S. government's official web portal to all federal, state and local government web resources and services.